[Iaude] MPEC U08: COMET P/2016 S1 (PANSTARRS)

mpec at si.edu mpec at si.edu
Mon Oct 17 21:59:48 EDT 2016


M.P.E.C. 2016-U08                                Issued 2016 Oct. 18, 01:54 UT
 
     The Minor Planet Electronic Circulars contain information on unusual
         minor planets and routine data on comets.  They are published
    on behalf of Division F of the International Astronomical Union by the
          Minor Planet Center, Smithsonian Astrophysical Observatory,
                          Cambridge, MA 02138, U.S.A.

             Prepared using the Tamkin Foundation Computer Network

                              MPC at CFA.HARVARD.EDU
            URL http://www.minorplanetcenter.net/    ISSN 1523-6714


                          COMET P/2016 S1 (PANSTARRS)
 
Observations:
    PK16S010  C2016 09 21.57243 04 57 47.352-25 58 58.03         19.4 TLEU008F51
    PK16S010  C2016 09 21.58212 04 57 47.431-25 59 17.29         19.4 TLEU008F51
    PK16S010  C2016 09 21.59179 04 57 47.512-25 59 36.58         19.5 TLEU008F51
    PK16S010  C2016 09 21.60147 04 57 47.585-25 59 56.04         19.6 TLEU008F51
    PK16S010 |C2016 09 22.47926 04 57 54.81 -26 29 15.6                vEU008H06
    PK16S010 |C2016 09 22.48126 04 57 54.82 -26 29 20.0                vEU008H06
    PK16S010 |C2016 09 22.48325 04 57 54.82 -26 29 23.9          17.9 TvEU008H06
    PK16S010  C2016 09 22.48644 04 57 54.83 -26 29 31.1          18.7 ToEU008926
    PK16S010  C2016 09 22.49591 04 57 54.87 -26 29 50.2          18.7 ToEU008926
    PK16S010  C2016 09 22.50539 04 57 54.91 -26 30 09.2          18.6 ToEU008926
    PK16S010 3C2016 09 23.23310 04 58 00.20 -26 54 36.0          18.7 TqEU008W88
    PK16S010 3C2016 09 23.25198 04 58 00.30 -26 55 13.9          18.6 TqEU008W88
    PK16S010 1C2016 09 23.59968 04 58 02.48 -27 07 00.1                vEU008Q62
    PK16S010 1C2016 09 23.60294 04 58 02.52 -27 07 06.6          17.9 TvEU008Q62
    PK16S010 1C2016 09 23.68317 04 58 02.91 -27 09 51.0                vEU008Q62
    PK16S010 1C2016 09 23.68684 04 58 02.96 -27 09 58.4          17.5 TvEU008Q62
    PK16S010 KV2016 09 25.17735 04 58 09.79 -28 00 50.7          18.6 TqEU008247
    PK16S010 Kv2016 09 25.17735 1 300.6084   -34.2523      26           EU008247
    PK16S010 KV2016 09 25.24286 04 58 09.91 -28 03 06.1          18.6 TqEU008247
    PK16S010 Kv2016 09 25.24286 1 300.6084   -34.2523      26           EU008247
    PK16S010 KC2016 09 25.42391 04 58 10.40 -28 09 23.3          18.5 ToEU008291
    PK16S010 KC2016 09 25.42584 04 58 10.41 -28 09 27.6          18.4 ToEU008291
    PK16S010 KC2016 09 25.42780 04 58 10.46 -28 09 31.7          18.5 ToEU008291
    PK16S010  C2016 09 25.48519 04 58 10.48 -28 11 29.6          18.5 ToEU008926
    PK16S010  C2016 09 25.48907 04 58 10.52 -28 11 38.2          18.5 ToEU008926
    PK16S010  C2016 09 25.49301 04 58 10.46 -28 11 46.5          18.9 ToEU008926
    PK16S010 _C2016 09 25.63728704 58 10.962-28 16 43.73         19.3 TUEU008568
    PK16S010 _C2016 09 25.63856904 58 10.963-28 16 46.39         19.3 TUEU008568
    PK16S010 _C2016 09 25.63984904 58 10.964-28 16 49.04         19.4 TUEU008568
    PK16S010 3C2016 09 26.25031 04 58 12.39 -28 37 52.8                qEU008W88
    PK16S010 3C2016 09 26.26058 04 58 12.37 -28 38 14.1                qEU008W88
    PK16S010 3C2016 09 26.27099 04 58 12.37 -28 38 35.6                qEU008W88
    PK16S010 3C2016 09 26.28257 04 58 12.39 -28 38 59.8                qEU008W88
    PK16S010 3C2016 09 26.29762 04 58 12.38 -28 39 31.4                qEU008W88
    PK16S010 3C2016 09 26.31504 04 58 12.41 -28 40 07.8          18.8 TqEU008W88
    PK16S010 |C2016 09 26.64825 04 58 12.86 -28 51 41.7          17.8 TrEU008Q62
    PK16S010 |C2016 09 26.65362 04 58 12.86 -28 51 53.2          17.8 TrEU008Q62
    PK16S010 |C2016 09 26.65898 04 58 12.86 -28 52 04.7          17.6 TrEU008Q62
    PK16S010 3C2016 09 27.34663 04 58 12.93 -29 16 02.8                qEU008W88
    PK16S010 3C2016 09 27.35515 04 58 12.91 -29 16 20.7          18.8 TqEU008W88
    PK16S010 KC2016 09 27.66854 04 58 12.81 -29 27 17.8          19.4 TqEU008E23
    PK16S010 KC2016 09 27.67340 04 58 12.69 -29 27 28.7          19.3 TqEU008E23
    PK16S010 KC2016 09 27.67826 04 58 12.78 -29 27 39.5          19.5 TqEU008E23
    PK16S010 KC2016 09 28.21289 04 58 12.05 -29 46 25.2          18.4 TqEU008W96
    PK16S010 KC2016 09 28.23055 04 58 12.04 -29 47 03.3          18.3 TqEU008W96
    PK16S010 KC2016 09 28.24820 04 58 11.97 -29 47 40.4          18.4 TqEU008W96
    PK16S010 KC2016 09 28.26589 04 58 11.87 -29 48 17.2          18.4 TqEU008W96
    PK16S010 KC2016 09 28.28002 04 58 11.84 -29 48 47.9          18.4 TqEU008W96
    PK16S010  C2016 09 29.31436 04 58 08.83 -30 25 18.9          18.1 TqEU008W96
    PK16S010  C2016 09 29.34728 04 58 08.66 -30 26 30.3          18.4 TqEU008W96
    PK16S010 KC2016 10 06.60459 04 56 48.76 -34 49 11.1          18.3 NqEU008Q68
    PK16S010 KC2016 10 06.63926 04 56 48.12 -34 50 27.3          18.3 NqEU008Q68
    PK16S010  C2016 10 10.30305 04 55 24.53 -37 06 02.8          17.9 NqEU008W96
    PK16S010  C2016 10 10.33846 04 55 23.47 -37 07 21.6          17.9 NqEU008W96
    PK16S010 KC2016 10 11.56315 04 54 48.67 -37 52 52.6          18.3 NqEU008Q68
    PK16S010 KC2016 10 11.59152 04 54 47.78 -37 53 57.0          18.4 NqEU008Q68
    PK16S010 |C2016 10 13.55287 04 53 43.78 -39 06 58.5          17.6 NrEU008Q62
    PK16S010 |C2016 10 13.56669 04 53 43.31 -39 07 29.9          17.7 NrEU008Q62
    PK16S010 KC2016 10 13.58259 04 53 42.69 -39 08 05.5          18.2 NqEU008Q68
    PK16S010 |C2016 10 13.59435 04 53 42.32 -39 08 32.1          17.6 NrEU008Q62
    PK16S010 KC2016 10 13.61554 04 53 41.50 -39 09 19.9          18.2 NqEU008Q68
 
Observer details:
247 Roving Observer.  Observers A. Chapman, D. Gentilli, C. Rodriguez,
    S. Colombo.  Measurer A. Chapman.  0.20-m f/4 reflector + CCD.
291 LPL/Spacewatch II.  Observer T. H. Bressi.  1.8-m f/2.7 reflector + CCD.
568 Mauna Kea.  Observers R. J. Wainscoat, P. Forshay.  Measurers M. Micheli,
    R. J. Wainscoat.  3.6-m Canada-France-Hawaii Telescope + CCD.
926 Tenagra II Observatory.  Observers M. Schwartz, P. R. Holvorcem.  Measurer
    M. Schwartz.  0.81-m f/7 Ritchey-Chretien + CCD.
E23 Arcadia.  Observer A. Hidas.  0.35-m f/1.9 reflector + CCD.
F51 Pan-STARRS 1, Haleakala.  Observers B. Gibson, T. Goggia, S. Kahale,
    A. Schultz, M. Willman.  Measurers K. Chambers, S. Chastel, L. Denneau,
    H. Flewelling, M. Huber, E. Lilly, E. Magnier, R. Wainscoat, C. Waters,
    R. Weryk.  1.8-m Ritchey-Chretien + CCD.
H06 iTelescope Observatory, Mayhill.  Observer H. Sato.  0.51-m f/6.8
    astrograph + CCD + f/4.5 focal reducer.
Q62 iTelescope Observatory, Siding Spring.  Observers H. Sato, L. Buzzi,
    P. Concari, S. Foglia, G. Galli, M. Tombelli, P. S. Lau.  0.15-m f/7
    refractor + CCD, 0.40-m f/3.5 astrograph + CCD, 0.51-m f/6.8 astrograph
    + CCD + f/4.5 focal reducer, 0.51-m f/6.8 astrograph + CCD + focal reducer.
Q68 Blue Mountains Observatory, Leura.  Observers P. Camilleri, H. Williams.
    Measurer P. Camilleri.  0.30-m f/5.4 reflector + CCD.
W88 Slooh.com Chile Observatory, La Dehesa.  Observers B. Lutkenhoner,
    J. Tuten, K. Breedlove, C. Feliciano, G. Mitchell.  Measurers
    B. Lutkenhoner, J. Tuten.  0.35-m f/11 Schmidt-Cassegrain + CCD.
W96 CAO, San Pedro de Atacama (since 2013).  Observers A. Maury, J.-F. Soulier,
    J.-B. de Vanssay, J.-G. Bosch.  Measurers J.-F. Soulier, J.-G. Bosch.
    0.4-m f/5.4 Ritchey-Chretien + CCD.
 
Orbital elements:
    P/2016 S1 (PANSTARRS)
Epoch 2017 Mar. 28.0 TT = JDT 2457840.5
T 2017 Mar. 16.33129 TT                                 MPCW
q   2.4146423            (2000.0)            P               Q
n   0.04072468     Peri.  273.45052     +0.01978795     -0.67722879
a   8.3668933      Node   227.56059     +0.30429344     -0.69667121
e   0.7114052      Incl.   94.70329     -0.95237280     -0.23666514
P  24.20
>From 59 observations 2016 Sept. 21-Oct. 13, mean residual 0".4.

    P/2016 S1 (PANSTARRS)
Epoch 2041 May 1.0 TT = JDT 2466640.5
T 2041 May 5.02235 TT                                   MPCW
q   2.3847841            (2000.0)            P               Q
n   0.04076708     Peri.  272.95379     +0.02627307     -0.67663195
a   8.3610914      Node   227.59405     +0.30984105     -0.69434403
e   0.7147760      Incl.   94.74697     -0.95042530     -0.24506238
P  24.18
>From 59 observations 2016 Sept. 21-Oct. 13, mean residual 0".4.

    P/2016 S1 (PANSTARRS)
Epoch 2016 July 31.0 TT = JDT 2457600.5
T 2017 Mar. 16.30749 TT                                 MPCW
q   2.4146776            (2000.0)            P               Q
n   0.04069570     Peri.  273.44367     +0.01984379     -0.67725862
a   8.3708659      Node   227.55798     +0.30439419     -0.69660756
e   0.7115379      Incl.   94.70168     -0.95233944     -0.23676712
P  24.22
>From 59 observations 2016 Sept. 21-Oct. 13, mean residual 0".4.

Ephemeris:
    P/2016 S1 (PANSTARRS)
Date    TT    R. A. (2000) Decl.     Delta      r     Elong.  Phase   m1    m2
2016 09 18    04 57 06.1 -24 02 07   2.5488  2.9151   101.2    19.8  18.7
...
2016 10 03    04 57 41.6 -32 37 27   2.3656  2.8437   108.3    19.5  18.4
...
2016 10 11    04 55 05.0 -37 31 55   2.2965  2.8071   110.5    19.5  18.3
...
2016 10 17    04 51 26.6 -41 15 12   2.2591  2.7804   111.3    19.5  18.2
2016 10 18    04 50 40.8 -41 52 17   2.2541  2.7761   111.3    19.5  18.2
2016 10 19    04 49 52.1 -42 29 16   2.2494  2.7717   111.3    19.6  18.2
...
2016 10 25    04 43 56.3 -46 07 48   2.2286  2.7459   110.9    19.8  18.1
...
2016 11 02    04 32 55.8 -50 43 44   2.2196  2.7126   109.2    20.2  18.1
...
2016 11 17    04 01 52.6 -57 56 49   2.2537  2.6539   102.8    21.3  18.0

Gareth V. Williams           (C) Copyright 2016 MPC           M.P.E.C. 2016-U08




More information about the Iaude mailing list